Вернуться в каталог

FENGYUN 1C DEB

АктивенSSO
NORAD 30670·DEBRIS·🇨🇳 China

Запущен May 10, 1999 с Taiyuan Satellite Launch Center

Loading…

Ближайшие Пролёты (ближайшие 24 часа)

TLE

СвежийSource: Space-Track

Эпоха: Sep 13, 2026, 01:20 UTC

1 30670U 99025AQC 26256.05562649  .00000086  00000-0  64766-4 0  9996
2 30670  98.6742 298.7725 0039123   5.0249  24.4746 14.15926220 10125

Отслеживайте FENGYUN 1C DEB в реальном времени с AllMySat

Download on the App Store